Regional Weather Roundup
Issued by NWS

Home | Current Version | Previous Version | Graphics & Text | Print | Product List | Glossary On
Versions: 1 2 3 4 5 6 7 8 9 10 11 12 13 14 15 16 17 18 19 20 21 22 23 24 25 26 27 28 29 30 31 32 33 34 35 36 37 38 39 40 41 42 43 44 45 46 47 48 49 50
000
ASUS44 KMEG 191710
RWRTN
TENNESSEE HOURLY STATE WEATHER ROUNDUP
NATIONAL WEATHER SERVICE MEMPHIS TN
1100 AM CST FRI DEC 19 2014

TNZ002-004-019-021-049-052-054-088>092-191800-
WEST TENNESSEE

CITY           SKY/WX    TMP DP  RH WIND       PRES   REMARKS
MEMPHIS INTL   CLOUDY    43  34  70 NE6       30.27F
NWS MEMPHIS      N/A     41 N/A N/A MISG        N/A
JACKSON        CLOUDY    39  29  67 E8        30.26F WCI  33
DYERSBURG      CLOUDY    37  21  52 E7        30.30F WCI  32
UNION CITY     CLOUDY    36  28  75 NE7       30.28F WCI  30
PARIS          CLOUDY    36  27  69 NE5       30.28F WCI  32
HUNTINGDON     CLOUDY    36  26  67 E6        30.29F WCI  31
LEXINGTON      CLOUDY    37  28  70 NE7       30.26F WCI  32
SAVANNAH       CLOUDY    39  30  70 NE7       30.25F WCI  34
$$

TNZ008-025-027-028-033-062-065-066-191800-
NORTH MIDDLE TENNESSEE

CITY           SKY/WX    TMP DP  RH WIND       PRES   REMARKS
NASHVILLE      CLOUDY    38  28  67 VRB6      30.29S WCI  33
CLARKSVILLE    CLOUDY    36  28  73 E6        30.30F WCI  31
SMYRNA         CLOUDY    38  28  67 VRB5      30.30S WCI  34
COOKEVILLE     SUNNY     36  28  75 CALM      30.23F
CROSSVILLE     CLOUDY    37  25  61 VRB5      30.20F WCI  33
$$

TNZ061-075-076-078-094-096-097-191800-
SOUTH MIDDLE TENNESSEE

CITY           SKY/WX    TMP DP  RH WIND       PRES   REMARKS
FAYETTEVILLE   PTSUNNY   37  27  65 MISG      30.24S
TULLAHOMA      SUNNY     37  28  70 N5        30.24S WCI  34
WINCHESTER     SUNNY     37  30  75 N5        30.24S WCI  34
MCMINNVILLE    SUNNY     36  30  80 CALM      30.24S
SHELBYVILLE    CLOUDY    37  30  75 N5        30.27S WCI  34
$$

TNZ017-018-042-046-047-191800-
NORTHEAST TENNESSEE

CITY           SKY/WX    TMP DP  RH WIND       PRES   REMARKS
TRI CITIES     PTSUNNY   44  23  43 CALM      30.18F
ELIZABETHTON   SUNNY     43  21  42 W6        30.16F
$$

TNZ012-013-036-069-073-074-191800-
CENTRAL EAST TENNESSEE

CITY           SKY/WX    TMP DP  RH WIND       PRES   REMARKS
KNOXVILLE      CLOUDY    42  25  50 N5        30.20F
OAK RIDGE      PTSUNNY   43  22  43 VRB3      30.22F
GATLINBURG     SUNNY     41  25  52 CALM      30.19F
MORRISTOWN     SUNNY     45  23  42 CALM      30.19F
$$

TNZ083-085-099-191800-
SOUTHEAST TENNESSEE

CITY           SKY/WX    TMP DP  RH WIND       PRES   REMARKS
CHATTANOOGA    CLOUDY    44  27  51 VRB6      30.23S
$$

SKY/WX REPORTED AS FAIR MEANS FEW OR NO CLOUDS BELOW
12 THOUSAND FEET.



USA.gov is the U.S. government's official web portal to all federal, state and local government web resources and services.